www.pogodaiklimat.ru
ПОГОДА в Преображенке

Архив погоды в Преображенке (Иркутская область, Россия)

Время
(UTC), дата
09 8.07
12 8.07
15 8.07
18 8.07
21 8.07
00 9.07
03 9.07
06 9.07
09 9.07
12 9.07
15 9.07
18 9.07
21 9.07
00 10.07
03 10.07
06 10.07
09 10.07
12 10.07
15 10.07
18 10.07
21 10.07
00 11.07
03 11.07
06 11.07
09 11.07
12 11.07
15 11.07
18 11.07
21 11.07
00 12.07
03 12.07
06 12.07
09 12.07
12 12.07
15 12.07
18 12.07
21 12.07
00 13.07
03 13.07
06 13.07
09 13.07
12 13.07
15 13.07
18 13.07
21 13.07
00 14.07
03 14.07
06 14.07
09 14.07
12 14.07
15 14.07
18 14.07
21 14.07
00 15.07
03 15.07
06 15.07
Ветер
(напр.,м/с)
Видим. Явления Облачность Т
(С)
Тd
(С)
f
(%)
Тe
(С)
Тes
(С)
Комфортность P
(гПа)
Po
(гПа)
Тmin
(С)
Tmax
(С)
R
(мм)
R24
(мм)
S
(см)
Ю 1 20 км слаб. ливневой дождь 9/8 600 м
[Cb cap Ci fib]
+26.8 +17.3 56 +31 +32 душно 1000.1 967.4
Ю 1 50 км {ливн. дождь} 9/3 600 м
[Sc diur, vesp Ac lent Ci fib]
+26.5 +19.1 64 +32 +32 очень душно 1000.5 967.8 +29.8 0.4
штиль 0 н/о туман поземный 9/0
[Ac cast Ci fib]
+21.4 +19.5 89 +26 +26 душно 1002.2 968.5
штиль 0 н/о туман поземный 9/0
[Ci fib]
+17.6 +16.6 94 +18 +18 1002.7 968.9
штиль 0 50 км местами туман поземный 8/0
[Ac trans Ci fib]
+16.4 +15.5 94 +16 +17 1003.3 969.3
штиль 0 50 км 9/0
[Ac trans Ci fib]
+22.4 +19.4 83 +28 +32 душно 1003.1 969.8 +16.1
ЮВ 2 50 км 9/8 600 м
[Cb cap Ac trans Ci fib]
+27.2 +20.2 66 +34 +35 очень душно 1002.6 969.9
штиль 0 50 км 9/8 600 м
[Cb cap Ci fib]
+29.4 +19.1 54 +35 +38 очень душно 1001.5 969.1
СЗ 3 50 км в посл. час гроза 9/4 600 м
[Cb cap Ac trans Ci fib]
+28.6 +19.2 57 +34 +36 очень душно 1001.5 969.0
штиль 0 50 км в посл. час ливневой дождь {гроза} 9/9 600 м
[Cb cap]
+25.2 +20.0 73 +31 +31 очень душно 1003.0 970.0 +29.5 0.0
штиль 0 н/о 6/3 600 м
[Cb cap Ci fib]
+21.0 +19.4 91 +25 +25 комфорт 1004.0 970.6
штиль 0 н/о туман поземный 3/1 600 м
[Sc Ci fib]
+17.9 +17.4 97 +18 +18 1005.0 971.1
штиль 0 1000 м дымка 3/0
[Ci fib]
+16.0 +15.7 98 +16 +16 1005.7 971.6
штиль 0 50 км {туман} ясно +22.0 +19.5 86 +28 +34 душно 1005.2 971.9 +15.8
штиль 0 50 км 6/5 600 м
[Cu hum Ci fib]
+27.9 +17.8 54 +32 +40 душно 1004.9 972.2
С 1 50 км 8/8 600 м
[Cb cap Ci fib]
+29.4 +16.3 45 +33 +36 душно 1004.0 971.5
штиль 0 50 км 8/5 600 м
[Sc Ci fib]
+30.6 +15.6 40 +33 +37 душно 1003.0 970.6
штиль 0 50 км 6/3 600 м
[Cu hum Ci fib]
+29.7 +15.3 42 +32 +33 душно 1003.1 970.6 +30.6
штиль 0 н/о 9/3 600 м
[Sc Cs]
+20.8 +18.2 85 +25 +25 комфорт 1004.7 971.2
штиль 0 50 км 1/0
[Ci fib]
+17.2 +16.2 94 +17 +17 1005.9 971.9 +15.3
штиль 0 50 км 4/1 600 м
[Cu hum Ci fib]
+15.4 +14.7 96 +15 +15 1007.1 972.8
штиль 0 50 км 1/0
[Ci fib]
+22.4 +16.1 68 +27 +33 душно 1006.9 973.0 +15.3
В 2 50 км 4/1 600 м
[Cu med, cong Ci fib]
+30.6 +18.2 48 +35 +45 очень душно 1003.2 970.8
штиль 0 50 км 6/5 600 м
[Cu med, cong Ci fib]
+33.0 +16.0 36 +36 +44 очень душно 1002.0 969.8
В 2 50 км 4/4 600 м
[Cu med, cong]
+32.4 +15.6 36 +35 +38 душно 1001.1 969.0
СВ 2 50 км 3/0
[Ac cuf Ci fib]
+31.2 +15.4 38 +34 +34 душно 1001.1 968.8 +33.0
СВ 1 н/о 3/0
[Ci fib]
+21.0 +17.9 82 +26 +26 душно 1002.4 969.0
штиль 0 н/о 4/0
[Ci fib]
+19.0 +16.7 87 +20 +20 1002.8 969.1
штиль 0 50 км 9/0
[Cs]
+17.3 +16.0 92 +17 +18 1002.9 969.0
С 1 10 км дым 9/0
[Cs]
+24.4 +19.4 74 +30 +34 очень душно 1001.9 969.8 +17.1
В 1 4000 м дым 9/0
[Cs]
+29.6 +20.9 60 +37 +49 очень душно 1001.1 968.8
СВ 3 10 км дым 8/0
[Ci fib]
+31.6 +16.2 40 +35 +44 очень душно 1000.3 968.1
В 2 50 км дым 8/0
[Ci fib]
+32.4 +14.8 35 +34 +40 очень жарко 999.0 966.8
В 3 4000 м мгла ?/? +29.2 +17.4 49 +33 +33 очень душно 1000.1 967.7 +32.4
В 3 н/о мгла ?/? +24.8 +12.1 45 +26 +26 жарко 1001.3 968.2
В 1 н/о мгла ?/? +22.3 +10.7 48 +24 +24 комфорт 1001.9 968.6
С 1 2000 м дымка {мгла} 9/0
[Ci fib]
+17.4 +12.9 75 +18 +19 1003.1 969.2
СВ 1 4000 м дымка {мгла} 9/0
[Ci fib]
+21.4 +13.4 60 +24 +28 комфорт 1002.4 969.0 +16.3
В 2 10 км дым 9/0
[Cs]
+27.0 +12.9 42 +29 +38 жарко 1001.4 968.7
В 2 20 км дым 8/0
[Ci fib]
+29.9 +12.7 35 +31 +42 жарко 1000.5 968.1
В 2 50 км 4/0
[Ci fib]
+29.8 +10.4 30 +30 +36 жарко 1000.2 967.7
В 2 50 км 3/0
[Ci fib]
+28.0 +11.3 35 +29 +29 жарко 1000.7 968.1 +29.9
В 2 н/о 3/0
[Ac trans Ci fib]
+23.4 +11.5 47 +26 +26 жарко 1001.7 968.5
В 2 н/о 6/0
[Ac trans Ci fib]
+21.0 +11.5 55 +24 +24 комфорт 1001.8 968.4
штиль 0 10 км дым 6/0
[Ac trans Ci fib]
+16.1 +12.9 81 +16 +16 1002.9 968.9
штиль 0 10 км дым 9/0
[Cs]
+19.8 +15.2 75 +22 +27 комфорт 1002.6 969.1 +15.6
штиль 0 4000 м дым 9/0
[Cs]
+22.4 +15.4 65 +26 +39 жарко 1002.9 969.5
В 1 4000 м дым 9/1 600 м
[Cu hum Cs]
+24.8 +15.8 57 +28 +39 жарко 1002.9 969.8
Ю 1 10 км дым 9/8 600 м
[Cb cap Cs]
+23.4 +16.9 67 +29 +30 душно 1003.4 970.1
Ю 1 50 км 10/0
[Ac As]
+20.5 +15.5 73 +24 +25 комфорт 1004.8 971.3 +24.8
штиль 0 н/о 10/5 600 м
[Sc Ac As]
+16.9 +14.8 87 +17 +17 1005.8 971.8
штиль 0 н/о 9/9 600 м
[Sc]
+14.8 +13.7 93 +14 +14 1005.7 971.5
штиль 0 50 км 9/8 600 м
[Cb cap Ac trans Ci fib]
+13.6 +13.3 98 +13 +13 1006.4 971.9
штиль 0 50 км 10/9 600 м
[Cb cap Ac As]
+16.2 +14.8 91 +16 +16 1006.4 972.3 +13.5
ЮВ 1 50 км 10/1 600 м
[Cu med, cong Cs]
+20.6 +15.6 73 +25 +35 комфорт 1004.8 971.3
штиль 0 20 км дым 10/3 600 м
[Cu med, cong Cs]
+23.0 +15.5 63 +27 +37 душно 1004.8 971.5
Местоположение метеостанции Преображенка (Иркутская область, Россия): широта 60.05 долгота 108.00 высота над уровнем моря 295 м.
В архиве по умолчанию представлена погода в Преображенке за последнюю неделю. Архивные данные за месяц целиком и за предыдущие месяцы, начиная с января 2011 года, Вы можете получить, выбрав интересующий диапазон дат из раскрывающегося списка и нажав кнопку "Найти!".
*Определитесь, кто Вы:
Внимание! Время в таблицах - всемирное. Для получения местного времени необходимо прибавить поправку, которая равна 8 ч.
Некоторые строки с данными для отдельных станций могут быть выделены курсивом. Это означает, что фактические данные отсутствуют по различным причинам, а приведенные значения являются расчетными модельными данными для данного пункта наблюдений.
Смотрите также архив погоды в соседних городах и на ближайших метеорологических станциях:
Партнеры нашего сайта:      
Пояснения к столбцам:
  • Ветер - указаны скорость ветра в м/с - средняя за 10 мин, порывы в срок и между сроками (в фигурных скобках) и направление, откуда дует ветер: С - северный,
  • СВ - северо-восточный, В - восточный, ЮВ - юго-восточный, Ю - южный, ЮЗ - юго-западный, З - западный, СЗ - северо-западный.
  • Видимость - горизонтальная дальность видимости в метрах или километрах. При видимости от 1 до 10 км при отсутствии осадков обычно наблюдается дымка, при ухудшении видимости до 1 км и менее - туман. В сухую погоду видимость может ухудшаться дымом, пылью или мглою.
  • Явления - указаны атмосферные явления, наблюдавшиеся в срок или в последний час перед сроком; фигурными скобками обозначены явления, наблюдавшиеся между сроками (за 1-3 часа до срока); квадратными скобками обозначены град или гололедные отложения с указанием их диаметра в мм.
  • Облачность - указаны через наклонную черту общая и нижняя облачность в баллах и высота нижней границы облаков в метрах; квадратными скобками обозначены формы облаков: Ci - перистые, Cs - перисто-слоистые, Cc - перисто-кучевые, Ac - высококучевые, As - высокослоистые, Sc - слоисто-кучевые, Ns - слоисто-дождевые, Cu - кучевые, Cb - кучево-дождевые. Подробнее классификацию облаков см. в Атласе облаков (PDF).
  • T - Температура воздуха - температура, измеренная на высоте 2 м над землей.
  • Td - Температура точки росы - температура, при понижении до которой содержащийся в воздухе водяной пар достигнет насыщения.
  • f - Относительная влажность воздуха - влажноcть воздуха, измеренная на высоте 2 м над землей.
  • Te - Эффективная температура - температура, которую ощущает одетый по сезону человек в тени. Характеристика душности погоды. При расчете учитывается влияние влажности воздуха и скорости ветра на теплоощущения человека.
  • Tes - Эффективная температура на солнце - температура, которую ощущает человек, с поправкой на солнечный нагрев. Характеристика знойности погоды. Зависит от высоты солнца над горизонтом, облачности и скорости ветра. Ночью, в пасмурную погоду, а также при ветре 12 м/с и более поправка равна нулю.
  • P - Атмосферное давление - приведенное к уровню моря атмосферное давление.
  • Po - Атмосферное давление - измеренное на уровне метеостанции атмосферное давление.
  • Tmin - Минимальная температура - минимум температуры воздуха на высоте 2 м над землей.
  • Tmax - Максимальная температура - максимум температуры воздуха на высоте 2 м над землей.
  • R - Количество осадков - Количество выпавших осадков за период времени, мм. При наведении курсора мыши на число - период времени, за который выпало указанное количество осадков.
  • R24 - Количество осадков - Количество выпавших осадков за 24 часа, мм.
  • S - Снежный покров - Высота снежного покрова, см. При наведении курсора мыши на число - состояние снежного покрова и степень покрытия местности в баллах.